When you browse on this site, cookies collect data to enhance your experience and personalize the content and advertising you see.
Visit our Privacy Policy to learn more. By continuing to use the site, you agree to this use of cookies and data.
  • In Czech Republic
  • List of Countries
  • For 7 days
  • Water Temperature
  • Weather Map
  • Weather Widgets
  • user-avatar
    Login

    Hourly Weather Auce

    Today, 4 June, Thursday

    Time Temperature Precipitation Wind Pressure Humidity
    00:00 +8°C° 0 mm 2 mps 745 mmHg 94%
    01:00 +7°C° 0 mm 2 mps 745 mmHg 95%
    02:00 +8°C° 0 mm 1 mps 745 mmHg 96%
    03:00 +8°C° 0 mm 1 mps 745 mmHg 96%
    04:00 +8°C° 0 mm 1 mps 745 mmHg 97%
    05:00 +8°C° 0 mm 1 mps 744 mmHg 97%
    06:00 +9°C° 0 mm 2 mps 744 mmHg 92%
    07:00 +12°C° 0 mm 2 mps 744 mmHg 87%
    08:00 +14°C° 0 mm 2 mps 744 mmHg 81%
    09:00 +15°C° 0 mm 2 mps 743 mmHg 73%
    10:00 +17°C° 0 mm 2 mps 743 mmHg 65%
    11:00 +18°C° 0 mm 2 mps 743 mmHg 57%
    12:00 +19°C° 0 mm 2 mps 743 mmHg 54%
    13:00 +19°C° 0 mm 2 mps 742 mmHg 51%
    14:00 +20°C° 0 mm 2 mps 742 mmHg 48%
    15:00 +20°C° 0.1 mm 2 mps 742 mmHg 53%
    16:00 +19°C° 0.1 mm 2 mps 741 mmHg 57%
    17:00 +19°C° 0.1 mm 2 mps 741 mmHg 62%
    18:00 +17°C° 0.1 mm 2 mps 741 mmHg 70%
    19:00 +16°C° 0.1 mm 2 mps 741 mmHg 78%
    20:00 +14°C° 0.1 mm 2 mps 741 mmHg 86%
    21:00 +13°C° 0 mm 1 mps 740 mmHg 88%
    22:00 +12°C° 0 mm 1 mps 740 mmHg 91%
    23:00 +10°C° 0 mm 1 mps 740 mmHg 94%

    Tomorrow, 5 June, Friday

    Time Temperature Precipitation Wind Pressure Humidity
    00:00 +10°C° 0 mm 1 mps 740 mmHg 94%
    01:00 +9°C° 0 mm 1 mps 740 mmHg 94%
    02:00 +8°C° 0 mm 0 mps 740 mmHg 94%
    03:00 +9°C° 0 mm 1 mps 740 mmHg 94%
    04:00 +10°C° 0 mm 1 mps 739 mmHg 93%
    05:00 +10°C° 0 mm 1 mps 739 mmHg 93%
    06:00 +12°C° 0 mm 1 mps 739 mmHg 87%
    07:00 +14°C° 0 mm 2 mps 740 mmHg 81%
    08:00 +16°C° 0 mm 2 mps 740 mmHg 76%
    09:00 +17°C° 0 mm 3 mps 740 mmHg 70%
    10:00 +18°C° 0 mm 4 mps 740 mmHg 65%
    11:00 +20°C° 0 mm 4 mps 740 mmHg 60%
    12:00 +20°C° 0 mm 4 mps 740 mmHg 58%
    13:00 +21°C° 0 mm 5 mps 740 mmHg 56%
    14:00 +21°C° 0 mm 5 mps 740 mmHg 54%
    15:00 +21°C° 0 mm 5 mps 739 mmHg 56%
    16:00 +20°C° 0 mm 5 mps 739 mmHg 59%
    17:00 +20°C° 0 mm 4 mps 739 mmHg 61%
    18:00 +19°C° 0 mm 4 mps 739 mmHg 66%
    19:00 +18°C° 0 mm 4 mps 738 mmHg 71%
    20:00 +17°C° 0 mm 4 mps 738 mmHg 76%
    21:00 +17°C° 0.1 mm 4 mps 738 mmHg 76%
    22:00 +16°C° 0.1 mm 5 mps 738 mmHg 77%
    23:00 +15°C° 0.1 mm 5 mps 738 mmHg 78%

    Day after tomorrow, 6 June, Saturday

    Time Temperature Precipitation Wind Pressure Humidity
    00:00 +15°C° 0.4 mm 5 mps 738 mmHg 83%
    01:00 +14°C° 0.4 mm 5 mps 738 mmHg 89%
    02:00 +14°C° 0.4 mm 5 mps 738 mmHg 95%
    03:00 +13°C° 0 mm 4 mps 738 mmHg 95%
    04:00 +12°C° 0 mm 4 mps 738 mmHg 95%
    05:00 +11°C° 0 mm 4 mps 739 mmHg 95%
    06:00 +13°C° 0 mm 4 mps 739 mmHg 90%
    07:00 +14°C° 0 mm 5 mps 740 mmHg 86%
    08:00 +15°C° 0 mm 6 mps 740 mmHg 81%
    09:00 +15°C° 0.3 mm 6 mps 740 mmHg 82%
    10:00 +15°C° 0.3 mm 6 mps 741 mmHg 84%
    11:00 +14°C° 0.3 mm 7 mps 741 mmHg 86%
    12:00 +15°C° 0.2 mm 7 mps 742 mmHg 76%
    13:00 +16°C° 0.2 mm 8 mps 742 mmHg 66%
    14:00 +17°C° 0.2 mm 8 mps 743 mmHg 56%
    15:00 +16°C° 0 mm 8 mps 744 mmHg 57%
    16:00 +16°C° 0 mm 7 mps 744 mmHg 58%
    17:00 +15°C° 0 mm 6 mps 745 mmHg 58%
    18:00 +15°C° 0 mm 5 mps 745 mmHg 64%
    19:00 +14°C° 0 mm 3 mps 746 mmHg 69%
    20:00 +14°C° 0 mm 2 mps 746 mmHg 74%
    21:00 +13°C° 0 mm 2 mps 746 mmHg 77%
    22:00 +11°C° 0 mm 3 mps 747 mmHg 79%
    23:00 +10°C° 0 mm 3 mps 747 mmHg 82%

    7 June, Sunday

    Time Temperature Precipitation Wind Pressure Humidity
    00:00 +10°C° 0 mm 3 mps 747 mmHg 78%
    01:00 +11°C° 0 mm 3 mps 747 mmHg 73%
    02:00 +12°C° 0 mm 4 mps 748 mmHg 68%
    03:00 +12°C° 0 mm 4 mps 748 mmHg 72%
    04:00 +12°C° 0 mm 4 mps 748 mmHg 77%
    05:00 +13°C° 0 mm 4 mps 748 mmHg 81%
    06:00 +14°C° 0 mm 3 mps 748 mmHg 79%
    07:00 +16°C° 0 mm 3 mps 749 mmHg 77%
    08:00 +17°C° 0 mm 2 mps 749 mmHg 75%
    09:00 +18°C° 0 mm 3 mps 749 mmHg 73%
    10:00 +20°C° 0 mm 3 mps 749 mmHg 70%
    11:00 +21°C° 0 mm 3 mps 749 mmHg 67%
    12:00 +20°C° 0.2 mm 3 mps 749 mmHg 73%
    13:00 +20°C° 0.2 mm 3 mps 749 mmHg 80%
    14:00 +19°C° 0.2 mm 2 mps 748 mmHg 86%
    15:00 +19°C° 0.7 mm 2 mps 748 mmHg 88%
    16:00 +18°C° 0.7 mm 3 mps 748 mmHg 91%
    17:00 +18°C° 0.7 mm 3 mps 748 mmHg 93%
    18:00 +17°C° 0.2 mm 3 mps 748 mmHg 94%
    19:00 +16°C° 0.2 mm 2 mps 748 mmHg 95%
    20:00 +15°C° 0.2 mm 2 mps 748 mmHg 95%
    21:00 +14°C° 0 mm 2 mps 749 mmHg 96%
    22:00 +13°C° 0 mm 2 mps 749 mmHg 97%
    23:00 +12°C° 0 mm 2 mps 750 mmHg 98%

    8 June, Monday

    Time Temperature Precipitation Wind Pressure Humidity
    00:00 +10°C° 0 mm 2 mps 750 mmHg 97%
    01:00 +10°C° 0 mm 1 mps 751 mmHg 97%
    02:00 +10°C° 0 mm 1 mps 751 mmHg 96%
    03:00 +10°C° 0 mm 1 mps 751 mmHg 95%
    04:00 +10°C° 0 mm 1 mps 751 mmHg 94%
    05:00 +10°C° 0 mm 1 mps 752 mmHg 92%
    06:00 +12°C° 0 mm 1 mps 752 mmHg 87%
    07:00 +14°C° 0 mm 1 mps 752 mmHg 82%
    08:00 +16°C° 0 mm 1 mps 753 mmHg 76%
    09:00 +18°C° 0 mm 1 mps 753 mmHg 69%
    10:00 +20°C° 0 mm 1 mps 753 mmHg 61%
    11:00 +20°C° 0 mm 2 mps 753 mmHg 53%
    12:00 +20°C° 0.1 mm 2 mps 753 mmHg 57%
    13:00 +19°C° 0.1 mm 2 mps 753 mmHg 61%
    14:00 +19°C° 0.1 mm 2 mps 753 mmHg 65%
    15:00 +18°C° 0.1 mm 2 mps 753 mmHg 68%
    16:00 +18°C° 0.1 mm 2 mps 753 mmHg 71%
    17:00 +17°C° 0.1 mm 2 mps 753 mmHg 74%
    18:00 +16°C° 0 mm 3 mps 752 mmHg 73%
    19:00 +16°C° 0 mm 3 mps 752 mmHg 72%
    20:00 +16°C° 0 mm 3 mps 752 mmHg 71%
    21:00 +14°C° 0.1 mm 3 mps 752 mmHg 75%
    22:00 +13°C° 0.1 mm 4 mps 752 mmHg 78%
    23:00 +12°C° 0.1 mm 4 mps 752 mmHg 82%

    9 June, Tuesday

    Time Temperature Precipitation Wind Pressure Humidity
    00:00 +12°C° 0.5 mm 4 mps 752 mmHg 86%
    01:00 +12°C° 0.5 mm 4 mps 752 mmHg 90%
    02:00 +12°C° 0.5 mm 4 mps 752 mmHg 93%
    03:00 +13°C° 0.7 mm 4 mps 752 mmHg 95%
    04:00 +13°C° 0.7 mm 3 mps 751 mmHg 97%
    05:00 +14°C° 0.7 mm 3 mps 751 mmHg 99%
    06:00 +16°C° 0.6 mm 3 mps 751 mmHg 98%
    07:00 +18°C° 0.6 mm 3 mps 751 mmHg 96%
    08:00 +19°C° 0.6 mm 4 mps 751 mmHg 95%
    09:00 +21°C° 0.1 mm 4 mps 751 mmHg 86%
    10:00 +23°C° 0.1 mm 4 mps 751 mmHg 78%
    11:00 +26°C° 0.1 mm 4 mps 751 mmHg 69%
    12:00 +26°C° 0.7 mm 4 mps 751 mmHg 72%
    13:00 +26°C° 0.7 mm 5 mps 751 mmHg 74%
    14:00 +26°C° 0.7 mm 5 mps 750 mmHg 76%
    15:00 +26°C° 0.7 mm 5 mps 750 mmHg 77%
    16:00 +25°C° 0.7 mm 4 mps 750 mmHg 78%
    17:00 +23°C° 0.7 mm 4 mps 750 mmHg 79%
    18:00 +23°C° 0.5 mm 4 mps 750 mmHg 81%
    19:00 +22°C° 0.5 mm 4 mps 750 mmHg 83%
    20:00 +22°C° 0.5 mm 4 mps 750 mmHg 86%
    21:00 +21°C° 0.7 mm 4 mps 750 mmHg 88%
    22:00 +20°C° 0.7 mm 4 mps 750 mmHg 91%
    23:00 +20°C° 0.7 mm 3 mps 750 mmHg 94%
    Show more